Location: Cisewo
(53.3833°N, 14.9000°E)
Time: 13:51:44
(UTC+00:00)

Cosmos 2227 Rocket - Pass Details

Date: 18 April 2021
Orbit: 840 x 843 km, 71.0° (Epoch: 16 May)

Event Time Altitude Azimuth Distance (km) Brightness Sun altitude
Exits shadow 19:57:16 19° 158° (SSE) 1,904 3.5 -14.8°
Maximum altitude 20:00:30 33° 107° (ESE) 1,375 2.8 -15.1°
Drops below altitude 10° 20:05:30 10° 45° (NE) 2,472 4.6 -15.6°
Sets 20:08:09 0° 36° (NE) 3,411 5.5 -15.9°
